Change the Weather History Date:

Wednesday, January 1, 2014

  Actual Average (KDBN) Record (KDBN)
Temperature  
Mean Temperature 40 °F -  
Max Temperature 46 °F 59 °F 79 °F (1952)
Min Temperature 33 °F 38 °F 17 °F (1977)
Degree Days  
Heating Degree Days 26    
Moisture  
Dew Point 36 °F    
Average Humidity 82    
Maximum Humidity 93    
Minimum Humidity 66    
Precipitation  
Precipitation 0.00 in - - ()
Sea Level Pressure  
Sea Level Pressure 30.25 in    
Wind  
Wind Speed 0 mph (SE)    
Max Wind Speed 4 mph    
Max Gust Speed -    
Visibility 10 miles    
Events Rain    
Averages and records for this station are not official NWS values.
T = Trace of Precipitation, MM = Missing Value Source: NWS Daily Summary

Daily Weather History Graph

Daily Weather History Graph

Search for Another Location

Airport or City:

Trip Planner

Search our weather history database for the weather conditions in past years. The results will help you decide how hot, cold, wet, or windy it might be!

Date:

Astronomy

Jan. 01, 2014 Rise Set
Actual Time 7:37 AM EST 5:35 PM EST
Civil Twilight 7:09 AM EST 6:02 PM EST
Nautical Twilight 6:38 AM EST 6:34 PM EST
Astronomical Twilight 6:08 AM EST 7:04 PM EST
Moon 7:29 AM EST (1/1) 6:15 PM EST (1/1)
Length of Visible Light 10h 53m
Length of Day
9h 58m
New Moon, 0% of the Moon is Illuminated
Jan 1
New Moon
Jan 7
First Quarter
Jan 15
Full
Jan 24
Last Quarter
Jan 30
New

Hourly Weather History & Observations

Time (EST) Temp. Windchill Dew Point Humidity Pressure Visibility Wind Dir Wind Speed Gust Speed Precip Events Conditions
12:15 AM 35.6 °F - 32.0 °F 87% 30.33 in 10.0 mi Calm Calm - N/A   Clear
12:35 AM 35.6 °F - 32.0 °F 87% 30.32 in 10.0 mi Calm Calm - N/A   Clear
12:55 AM 33.8 °F - 32.0 °F 93% 30.33 in 10.0 mi Calm Calm - N/A   Clear
1:15 AM 35.6 °F - 32.0 °F 87% 30.31 in 10.0 mi Calm Calm - N/A   Clear
1:35 AM 33.8 °F - 32.0 °F 93% 30.31 in 10.0 mi Calm Calm - N/A   Clear
1:55 AM 33.8 °F - 32.0 °F 93% 30.32 in 10.0 mi Calm Calm - N/A   Clear
2:15 AM 35.6 °F - 32.0 °F 87% 30.31 in 10.0 mi Calm Calm - N/A   Clear
2:35 AM 35.6 °F - 32.0 °F 87% 30.30 in 10.0 mi Calm Calm - N/A   Clear
2:55 AM 33.8 °F - 32.0 °F 93% 30.29 in 10.0 mi Calm Calm - N/A   Clear
3:15 AM 35.6 °F - 32.0 °F 87% 30.28 in 10.0 mi Calm Calm - N/A   Clear
3:35 AM 35.6 °F - 32.0 °F 87% 30.30 in 10.0 mi Calm Calm - N/A   Clear
3:55 AM 35.6 °F - 32.0 °F 87% 30.31 in 10.0 mi Calm Calm - N/A   Clear
4:15 AM 35.6 °F - 32.0 °F 87% 30.30 in 10.0 mi Calm Calm - N/A   Clear
4:35 AM 35.6 °F - 32.0 °F 87% 30.30 in 10.0 mi Calm Calm - N/A   Clear
4:55 AM 35.6 °F - 32.0 °F 87% 30.29 in 10.0 mi Calm Calm - N/A   Clear
5:15 AM 35.6 °F - 32.0 °F 87% 30.30 in 10.0 mi Calm Calm - N/A   Clear
5:35 AM 35.6 °F - 32.0 °F 87% 30.30 in 10.0 mi Calm Calm - N/A   Clear
5:55 AM 35.6 °F - 32.0 °F 87% 30.29 in 10.0 mi Calm Calm - N/A   Clear
6:15 AM 35.6 °F - 32.0 °F 87% 30.28 in 10.0 mi Calm Calm - N/A   Clear
6:35 AM 35.6 °F - 32.0 °F 87% 30.29 in 10.0 mi Calm Calm - N/A   Clear
6:55 AM 35.6 °F - 32.0 °F 87% 30.29 in 10.0 mi Calm Calm - N/A   Clear
7:15 AM 35.6 °F - 32.0 °F 87% 30.31 in 10.0 mi Calm Calm - N/A   Clear
7:35 AM 35.6 °F - 32.0 °F 87% 30.32 in 10.0 mi Calm Calm - N/A   Clear
7:55 AM 35.6 °F - 32.0 °F 87% 30.31 in 10.0 mi Calm Calm - N/A   Clear
8:15 AM 35.6 °F - 32.0 °F 87% 30.31 in 10.0 mi Calm Calm - N/A   Clear
8:35 AM 37.4 °F - 32.0 °F 81% 30.32 in 10.0 mi Calm Calm - N/A   Clear
8:55 AM 37.4 °F - 32.0 °F 81% 30.32 in 10.0 mi Calm Calm - N/A   Clear
9:15 AM 37.4 °F - 32.0 °F 81% 30.33 in 10.0 mi Calm Calm - N/A   Clear
9:35 AM 39.2 °F - 32.0 °F 75% 30.32 in 10.0 mi Calm Calm - N/A   Clear
9:55 AM 41.0 °F - 32.0 °F 70% 30.32 in 10.0 mi Calm Calm - N/A   Clear
10:15 AM 42.8 °F - 33.8 °F 70% 30.31 in 10.0 mi Calm Calm - N/A   Clear
10:35 AM 42.8 °F - 33.8 °F 70% 30.33 in 10.0 mi Calm Calm - N/A   Scattered Clouds
10:55 AM 42.8 °F - 33.8 °F 70% 30.31 in 10.0 mi Calm Calm - N/A   Scattered Clouds
11:15 AM 42.8 °F - 33.8 °F 70% 30.31 in 10.0 mi Calm Calm - N/A   Mostly Cloudy
11:35 AM 44.6 °F - 33.8 °F 66% 30.32 in 10.0 mi Calm Calm - N/A   Mostly Cloudy
11:55 AM 44.6 °F - 33.8 °F 66% 30.30 in 10.0 mi Calm Calm - N/A   Mostly Cloudy
12:15 PM 44.6 °F - 35.6 °F 71% 30.29 in 10.0 mi Calm Calm - N/A   Scattered Clouds
12:35 PM 46.4 °F - 35.6 °F 66% 30.27 in 10.0 mi Calm Calm - N/A   Scattered Clouds
12:55 PM 46.4 °F - 35.6 °F 66% 30.26 in 10.0 mi Calm Calm - N/A   Mostly Cloudy
1:15 PM 46.4 °F - 35.6 °F 66% 30.25 in 10.0 mi Calm Calm - N/A   Scattered Clouds
1:35 PM 46.4 °F - 35.6 °F 66% 30.24 in 10.0 mi Calm Calm - N/A   Scattered Clouds
1:55 PM 46.4 °F - 35.6 °F 66% 30.23 in 10.0 mi Calm Calm - N/A   Mostly Cloudy
2:15 PM 46.4 °F - 37.4 °F 71% 30.23 in 10.0 mi Calm Calm - N/A Rain Light Rain
2:35 PM 46.4 °F - 37.4 °F 71% 30.23 in 10.0 mi Calm Calm - N/A   Light Drizzle
2:55 PM 46.4 °F - 37.4 °F 71% 30.22 in 10.0 mi Calm Calm - N/A Rain Light Rain
3:15 PM 46.4 °F 45.2 °F 37.4 °F 71% 30.21 in 10.0 mi SE 3.5 mph - N/A   Mostly Cloudy
3:35 PM 46.4 °F - 39.2 °F 76% 30.21 in 10.0 mi Calm Calm - N/A   Overcast
3:55 PM 46.4 °F - 39.2 °F 76% 30.20 in 10.0 mi Calm Calm - N/A   Overcast
4:15 PM 46.4 °F - 41.0 °F 81% 30.20 in 10.0 mi Calm Calm - N/A   Overcast
4:35 PM 46.4 °F - 41.0 °F 81% 30.19 in 10.0 mi Calm Calm - N/A   Overcast
4:55 PM 46.4 °F - 41.0 °F 81% 30.20 in 10.0 mi Calm Calm - N/A   Overcast
5:15 PM 46.4 °F - 41.0 °F 81% 30.19 in 10.0 mi Calm Calm - N/A   Overcast
5:35 PM 46.4 °F - 41.0 °F 81% 30.19 in 10.0 mi Calm Calm - N/A   Mostly Cloudy
5:55 PM 46.4 °F - 41.0 °F 81% 30.19 in 10.0 mi Calm Calm - N/A   Mostly Cloudy
6:15 PM 46.4 °F - 41.0 °F 81% 30.19 in 10.0 mi Calm Calm - N/A   Overcast
6:35 PM 44.6 °F - 41.0 °F 87% 30.18 in 10.0 mi Calm Calm - N/A   Overcast
6:55 PM 44.6 °F - 41.0 °F 87% 30.18 in 10.0 mi Calm Calm - N/A   Overcast
7:15 PM 44.6 °F - 41.0 °F 87% 30.18 in 10.0 mi Calm Calm - N/A   Overcast
7:35 PM 44.6 °F - 41.0 °F 87% 30.18 in 10.0 mi Calm Calm - N/A   Overcast
7:55 PM 44.6 °F - 41.0 °F 87% 30.17 in 10.0 mi Calm Calm - N/A   Overcast
8:15 PM 44.6 °F - 41.0 °F 87% 30.17 in 10.0 mi Calm Calm - N/A   Overcast
8:35 PM 44.6 °F - 41.0 °F 87% 30.16 in 10.0 mi Calm Calm - N/A   Overcast
8:55 PM 44.6 °F - 41.0 °F 87% 30.17 in 10.0 mi Calm Calm - N/A   Overcast
9:15 PM 44.6 °F - 41.0 °F 87% 30.16 in 10.0 mi Calm Calm - N/A   Overcast
9:35 PM 44.6 °F - 41.0 °F 87% 30.17 in 10.0 mi Calm Calm - N/A   Overcast
9:55 PM 44.6 °F - 41.0 °F 87% 30.17 in 10.0 mi Calm Calm - N/A   Overcast
10:15 PM 44.6 °F - 41.0 °F 87% 30.16 in 10.0 mi Calm Calm - N/A   Overcast
10:35 PM 44.6 °F - 41.0 °F 87% 30.14 in 10.0 mi Calm Calm - N/A   Overcast
10:55 PM 44.6 °F - 41.0 °F 87% 30.14 in 10.0 mi Calm Calm - N/A   Mostly Cloudy
11:15 PM 44.6 °F - 41.0 °F 87% 30.13 in 10.0 mi Calm Calm - N/A   Light Drizzle
11:35 PM 44.6 °F - 41.0 °F 87% 30.14 in 10.0 mi Calm Calm - N/A Rain Light Rain
11:55 PM 42.8 °F - 41.0 °F 93% 30.13 in 7.0 mi Calm Calm - N/A Rain Light Rain